SCP
0 0 0 0 0 0 0 0 0 0 0 0 0 0 0 0 0 1 1 1 1 1 1 1 1 1 1 1 1 1 1 1 1 1 1 2 2 2 2 2 1 1 1
0 0 0 0 0 0 0 0 0 0 0 0 0 0 0 0 0 0 1 1 1 1 1 1 1 1 1 1 1 1 1 1 1 1 1 2 2 2 2 2 1 1 1
0 0 0 0 0 0 0 0 0 0 0 0 0 0 0 0 0 0 0 0 0 1 1 1 1 1 1 1 1 1 1 1 1 1 1 1 2 2 2 1 1 1 1
0 0 0 0 0 0 0 0 0 0 0 0 0 1 1 1 1 0 0 0 0 0 1 1 1 1 1 1 0 0 1 1 1 1 1 1 1 1 1 1 1 1 1
0 0 0 0 0 1 1 0 0 0 0 0 1 1 1 1 1 1 1 0 0 0 0 1 1 1 1 1 1 0 0 1 1 1 1 1 1 1 1 1 1 2 2
0 0 0 0 1 1 1 0 0 0 0 0 1 1 1 1 1 1 1 0 0 0 0 1 1 1 1 1 1 1 0 1 1 1 1 1 1 1 1 1 2 2 2
0 0 0 1 1 1 1 1 0 0 0 0 0 0 0 0 1 1 1 0 0 1 1 1 1 1 1 1 1 1 1 1 1 1 1 1 1 1 1 1 2 2 2
0 0 1 1 1 1 1 1 0 0 0 0 0 0 0 0 1 1 1 0 1 1 1 1 1 1 1 1 1 1 1 1 1 1 1 1 1 1 1 1 2 2 2
1 1 1 1 1 1 1 0 0 0 0 0 0 0 0 1 1 1 1 1 1 1 1 1 1 1 1 1 1 0 0 1 1 1 1 1 1 1 1 1 1 2 2
1 1 1 1 1 1 1 0 0 0 0 0 0 0 0 1 1 1 1 1 1 1 1 1 1 1 1 1 0 0 0 0 1 1 1 1 1 1 1 1 1 1 1
1 1 1 1 1 1 0 0 0 0 0 0 0 0 0 1 2 1 1 1 1 1 1 1 1 1 1 0 0 0 0 0 0 0 1 1 1 1 1 1 1 1 1
1 1 1 1 1 1 0 0 0 0 0 0 0 0 0 1 2 1 1 1 1 2 1 1 1 1 1 0 0 0 0 0 0 0 0 0 0 1 1 1 1 1 1
1 1 1 1 1 0 0 0 0 0 0 0 0 0 0 1 1 1 1 1 1 1 1 1 1 1 1 0 0 0 0 0 0 0 0 0 0 0 1 1 1 1 1
0 0 0 0 0 0 0 0 0 0 0 0 0 0 0 1 1 1 1 1 1 1 1 1 1 1 1 0 0 0 0 0 0 0 0 0 0 0 0 0 0 1 1
0 0 0 0 0 0 0 0 0 0 0 0 0 0 0 0 0 1 1 1 1 1 1 1 0 0 0 0 0 0 0 0 0 0 0 0 0 0 0 0 0 0 0
0 0 0 0 0 0 0 0 0 0 0 0 0 0 0 0 0 0 1 0 0 0 0 0 0 0 0 0 0 0 0 0 0 0 0 0 0 0 0 0 0 0 0
0 0 0 0 0 0 0 0 0 0 0 0 0 0 0 0 0 0 0 0 0 0 0 0 0 0 0 0 0 0 0 0 0 0 0 0 0 0 0 0 0 0 0
0 0 0 0 0 0 0 0 0 0 0 0 0 0 0 0 0 0 0 0 0 0 0 0 0 0 0 0 0 0 0 0 0 0 0 0 0 0 0 0 0 0 0
0 0 0 0 0 0 0 0 0 0 0 0 0 0 0 0 0 0 0 0 0 0 0 0 0 0 0 0 0 0 0 0 0 0 0 0 0 0 0 0 0 0 0
0 0 0 0 0 0 0 0 0 0 0 0 0 0 0 0 0 0 0 0 0 0 0 0 0 0 0 0 0 0 0 0 0 0 0 0 0 0 0 0 0 0 0
0 0 0 0 0 0 0 0 0 0 0 0 0 0 0 0 0 0 0 0 0 0 0 0 0 0 0 0 0 0 0 0 0 0 0 0 0 0 0 0 0 0 0
0 0 0 0 0 0 0 0 0 0 0 0 0 0 0 0 0 0 0 0 0 0 0 0 0 0 0 0 0 0 0 0 0 0 0 0 0 0 0 0 0 0 0
0 0 0 0 0 0 0 0 0 0 0 0 0 0 0 0 0 0 0 0 0 0 0 0 0 0 0 0 0 0 0 0 0 0 0 0 0 0 0 0 0 0 0
0 0 0 0 0 0 0 0 0 0 0 0 0 0 0 0 0 0 0 0 0 0 0 0 0 0 0 0 0 0 0 0 0 0 0 0 0 0 0 0 0 0 0
0 0 0 0 0 0 0 0 0 0 0 0 0 0 0 0 0 0 0 0 0 0 0 0 0 0 0 0 0 0 0 0 0 0 0 0 0 0 0 0 0 0 0
0 0 0 0 0 0 0 0 0 0 0 0 0 0 0 0 0 0 0 0 0 0 0 0 0 0 0 0 0 0 0 0 0 0 0 0 0 0 0 0 0 0 0
Wind_Speed
3 3 3 3 3 3 3 3 4 6 6 6 6 7 7 7 6 6 6 12 13 12 11 11 10 10 10 10 9 9 8 7 6 5 4 4 4 3 3 3 3 2 2
4 3 4 4 4 3 3 4 5 5 5 5 7 7 7 7 7 7 6 9 13 13 12 12 11 11 11 11 10 10 9 8 7 7 6 5 5 5 4 3 3 2 2
4 3 4 4 3 4 4 4 6 4 5 6 7 7 6 7 7 7 7 6 7 12 14 14 13 13 13 12 12 11 10 9 8 8 7 7 6 6 5 4 3 3 2
5 4 3 4 3 3 4 4 4 4 5 5 6 6 6 6 7 7 7 6 6 6 11 15 15 14 14 14 13 13 11 10 9 9 8 7 7 6 5 4 4 3 3
5 4 4 3 4 3 3 4 4 5 6 6 6 6 6 6 6 7 8 8 8 7 7 9 13 15 15 15 14 14 12 11 10 9 9 8 7 7 6 6 5 4 3
5 5 3 4 4 4 3 4 5 5 5 5 6 7 7 6 6 7 7 7 7 8 8 8 6 8 13 15 15 14 13 12 11 10 9 9 8 8 7 7 6 5 4
5 5 3 4 3 4 4 5 5 7 5 4 5 6 6 8 7 6 6 6 7 8 8 8 6 6 6 11 14 15 14 13 11 10 10 9 9 9 8 7 7 6 6
5 4 4 3 4 3 4 4 4 3 3 1 1 2 3 4 5 6 6 6 7 6 7 8 8 8 7 6 9 15 15 14 12 11 11 10 10 10 10 9 8 8 7
6 5 5 4 3 3 3 3 3 3 3 2 3 2 1 3 3 4 7 6 6 6 6 7 9 9 8 7 8 12 16 15 13 12 11 10 10 10 10 10 10 9 9
5 5 5 5 4 4 3 2 3 1 1 2 2 2 3 2 1 3 3 5 6 7 7 6 7 8 9 7 9 14 16 16 15 13 12 11 11 10 10 10 10 10 9
5 5 5 4 5 4 4 4 3 2 1 1 1 2 3 2 1 2 3 3 4 5 6 7 6 7 8 8 8 13 15 15 15 15 14 13 12 12 12 11 10 10 10
3 5 4 4 4 4 4 4 4 4 3 3 2 2 1 1 2 2 3 3 3 4 5 5 6 6 6 7 10 13 15 14 15 15 15 15 14 13 13 13 12 12 12
3 4 3 4 4 4 4 4 4 4 4 4 3 3 3 3 2 2 2 2 2 2 3 4 5 5 5 6 7 10 13 14 14 14 14 14 15 15 14 15 14 14 14
3 4 3 4 4 4 4 4 3 4 4 4 5 4 3 3 2 2 1 1 1 2 3 4 4 5 5 5 6 6 9 13 13 13 13 13 13 14 14 15 15 15 14
3 3 3 4 4 4 3 4 3 4 4 4 4 4 3 3 2 2 1 1 1 1 2 3 3 4 4 4 6 6 7 12 12 12 12 12 12 12 13 13 14 14 14
3 3 3 4 4 4 3 3 3 3 4 4 3 3 3 3 3 2 1 1 2 1 1 3 2 3 3 3 5 5 6 7 11 12 12 11 11 12 11 12 12 13 13
4 4 3 3 3 3 3 3 3 3 3 4 3 4 4 3 2 2 2 1 2 2 2 2 2 2 3 4 4 4 4 4 7 11 11 11 11 11 10 10 11 11 12
4 4 4 3 3 2 2 3 3 2 2 2 3 3 3 3 3 2 2 2 2 1 1 2 2 1 2 3 3 3 3 3 4 8 9 9 10 10 10 9 9 10 10
5 4 4 3 3 2 2 2 2 2 2 2 2 2 2 2 2 2 1 2 1 1 1 1 2 1 1 2 2 2 3 2 3 3 4 6 7 8 8 8 8 9 9
5 5 4 3 3 2 2 2 2 2 2 2 2 1 1 1 1 1 1 1 1 1 1 1 1 1 0 1 1 1 1 2 2 2 3 2 3 3 4 5 6 7 7
5 5 4 4 3 2 2 2 2 2 2 2 2 2 2 4 5 3 1 1 1 0 1 0 0 0 0 1 1 2 2 2 1 2 2 2 1 2 2 2 3 6 6
5 5 4 4 3 2 3 0 2 2 2 2 2 2 3 3 3 2 2 3 3 1 1 1 1 1 1 1 2 3 3 3 2 1 3 3 2 2 2 3 4 4 5
6 6 5 4 4 4 5 4 3 2 2 2 2 2 2 2 2 2 3 4 2 1 3 3 2 1 2 1 2 3 3 4 4 3 4 3 3 3 2 1 1 3 4
7 6 6 6 4 4 6 5 4 4 2 2 2 2 3 3 2 1 1 2 1 1 2 3 2 2 2 2 3 4 4 4 4 2 3 4 4 4 4 3 2 2 4
7 7 6 6 6 6 7 6 6 4 3 3 3 3 3 3 3 1 3 2 2 2 1 1 3 3 3 4 4 4 4 5 4 3 2 4 4 5 5 4 2 5 6
7 6 6 6 6 5 7 8 8 4 4 3 3 3 2 3 3 4 5 4 4 3 3 3 4 5 5 5 6 6 5 5 5 4 2 4 5 5 5 4 4 4 5
Wind_Direction
45 54 65 57 60 68 86 81 81 83 80 75 74 75 74 72 69 67 74 59 53 54 54 53 53 51 51 49 45 41 37 38 34 34 39 41 35 30 37 37 37 38 33
45 48 66 61 58 61 70 85 85 85 84 80 75 74 67 69 68 68 70 75 61 53 51 51 51 49 49 48 45 40 38 41 36 36 40 42 39 39 42 44 37 30 20
44 51 56 65 64 73 86 82 85 85 90 89 82 75 69 62 64 64 62 57 68 64 53 50 49 47 46 44 43 41 39 41 40 39 40 43 43 43 46 45 36 27 16
49 50 53 63 70 79 88 92 91 95 91 85 80 74 75 71 66 63 63 62 53 55 60 51 48 46 44 42 40 38 37 37 39 40 41 43 42 42 48 47 45 34 32
46 57 49 51 76 84 88 93 88 90 93 90 86 76 69 64 59 59 59 57 56 53 58 64 55 47 41 39 36 36 36 36 39 40 40 42 43 43 48 49 50 44 45
43 54 63 62 74 92 92 93 99 97 94 95 88 77 68 67 60 53 55 56 53 52 50 49 54 57 47 38 33 33 33 34 38 40 40 42 42 42 45 45 43 40 39
47 55 53 62 61 83 92 108 112 115 109 109 108 98 84 67 60 55 52 55 57 52 51 48 43 39 50 46 34 29 28 30 35 40 44 45 45 43 42 42 40 37 32
51 52 57 71 77 88 94 102 116 120 117 119 122 131 123 103 68 55 56 53 53 53 49 47 43 42 37 37 38 28 23 26 34 42 45 45 45 44 41 40 39 36 32
56 52 54 60 70 94 97 97 115 126 121 91 33 355 48 87 103 69 53 54 51 47 47 43 42 39 40 38 34 31 23 24 33 43 47 46 46 46 42 39 39 40 38
60 55 59 59 65 69 89 99 85 98 130 114 85 33 32 70 128 113 81 61 53 47 41 39 39 38 39 40 41 33 27 26 32 39 43 44 45 45 44 42 41 43 43
64 62 57 59 64 69 71 70 68 62 77 58 71 92 92 99 71 103 101 88 70 52 44 38 37 36 38 40 37 36 30 29 34 36 38 40 42 44 45 41 41 41 44
79 72 64 67 68 68 69 68 74 76 67 66 62 74 91 96 93 95 110 104 80 63 55 43 37 36 37 43 42 37 34 33 37 37 38 39 40 41 42 40 41 40 45
92 81 75 74 72 71 69 69 78 77 81 78 69 63 59 56 59 73 102 97 93 94 75 60 43 35 35 39 40 31 43 37 36 39 40 41 41 42 42 41 41 40 44
92 92 84 78 78 76 79 74 73 71 72 75 72 71 70 66 67 67 71 100 114 99 75 62 53 33 30 34 26 14 48 41 36 38 42 42 42 43 44 42 41 42 43
110 107 104 99 90 83 75 78 73 78 71 66 71 75 69 74 68 51 46 340 338 59 75 67 49 38 32 39 10 34 45 44 36 40 42 43 44 44 45 44 43 42 42
130 135 127 119 107 98 93 81 79 68 83 77 66 72 68 72 68 61 42 11 350 10 65 62 54 49 36 44 36 35 51 58 49 44 43 44 45 44 45 45 43 42 41
154 149 139 127 113 110 107 102 93 94 91 95 95 87 82 69 72 69 51 52 48 58 92 87 80 71 58 44 40 27 33 37 57 50 44 45 46 46 45 44 42 41 40
161 159 147 140 120 114 111 112 111 109 95 90 91 92 90 87 72 62 57 71 68 55 97 102 111 77 52 45 31 18 26 37 46 63 50 45 43 42 43 44 43 41 38
169 168 163 154 141 135 128 128 130 121 112 106 103 96 92 101 103 93 80 69 70 72 78 156 105 75 45 40 18 24 36 27 27 80 76 61 47 40 40 41 40 37 36
179 176 171 163 157 154 154 151 146 138 130 122 114 104 91 91 88 103 100 91 86 96 102 126 125 132 84 19 311 348 12 27 9 24 35 39 74 68 59 45 38 33 29
182 178 172 169 163 164 154 172 170 167 159 145 142 132 90 57 33 21 8 67 118 187 168 175 146 216 83 324 337 328 334 325 1 360 336 345 356 3 33 65 52 29 17
181 177 181 176 170 159 116 106 266 186 177 167 157 146 134 142 113 100 47 21 344 294 275 241 239 271 335 352 335 309 314 307 320 5 318 322 322 329 346 5 31 13 357
179 181 187 185 185 152 146 170 245 243 202 193 188 173 157 135 183 154 149 177 176 331 304 293 283 301 299 324 295 298 309 314 316 332 313 302 304 304 312 355 12 326 327
180 188 191 191 189 162 160 177 209 230 214 204 207 205 193 184 173 222 214 206 197 187 249 262 283 302 311 308 294 299 302 293 286 282 293 294 302 301 300 290 191 262 287
187 192 194 196 196 182 170 181 205 217 222 217 214 221 227 220 126 231 240 230 228 223 181 271 327 325 337 313 293 274 275 278 284 284 286 290 300 300 288 274 243 223 247
192 192 194 204 206 203 170 185 213 218 224 222 220 219 211 246 171 214 238 241 246 249 247 222 228 231 241 233 239 259 273 280 287 288 288 286 293 301 292 271 282 282 269